QPF
0.01 0.01 0.01 0.01 0.01 0.01 0.01 0.01 0.02 0.02 0.01 0.01 0.01 0.01 0.01 0.01 0.01 0.02 0.02 0.03 0.03 0.03 0.02 0.01 0.01 0.01 0.01 0.01 0.01 0.01 0.01 0.01 0.01 0.01 0.01 0.01 0.02 0.02 0.01 0.01 0.02 0.02 0.02 0.02
0.01 0.01 0.01 0.01 0.00 0.01 0.01 0.01 0.02 0.02 0.02 0.01 0.01 0.01 0.01 0.01 0.02 0.02 0.02 0.03 0.03 0.02 0.02 0.01 0.01 0.01 0.01 0.01 0.01 0.02 0.01 0.01 0.01 0.01 0.01 0.01 0.02 0.01 0.02 0.02 0.03 0.04 0.03 0.02
0.02 0.02 0.02 0.03 0.01 0.01 0.01 0.01 0.01 0.02 0.02 0.01 0.01 0.01 0.01 0.02 0.02 0.02 0.02 0.03 0.03 0.03 0.02 0.02 0.01 0.01 0.01 0.01 0.01 0.01 0.01 0.01 0.01 0.01 0.01 0.01 0.02 0.02 0.03 0.04 0.04 0.04 0.02 0.02
0.01 0.03 0.05 0.04 0.01 0.01 0.02 0.02 0.01 0.01 0.01 0.01 0.01 0.01 0.01 0.02 0.02 0.02 0.02 0.02 0.02 0.02 0.02 0.01 0.01 0.01 0.01 0.01 0.01 0.01 0.01 0.01 0.01 0.01 0.01 0.02 0.03 0.03 0.03 0.05 0.05 0.04 0.03 0.03
0.02 0.02 0.04 0.02 0.01 0.02 0.03 0.04 0.02 0.02 0.02 0.02 0.02 0.02 0.02 0.02 0.02 0.02 0.02 0.02 0.02 0.02 0.02 0.01 0.01 0.01 0.01 0.01 0.01 0.01 0.01 0.01 0.01 0.01 0.02 0.02 0.02 0.03 0.03 0.03 0.04 0.05 0.04 0.04
0.02 0.02 0.03 0.03 0.01 0.02 0.03 0.06 0.04 0.03 0.03 0.04 0.05 0.05 0.05 0.02 0.02 0.02 0.02 0.02 0.02 0.02 0.02 0.02 0.02 0.01 0.02 0.02 0.02 0.01 0.01 0.01 0.01 0.01 0.02 0.03 0.03 0.03 0.04 0.03 0.03 0.03 0.05 0.05
0.02 0.02 0.03 0.02 0.02 0.04 0.05 0.05 0.02 0.02 0.02 0.03 0.04 0.05 0.04 0.03 0.02 0.02 0.02 0.02 0.03 0.02 0.01 0.01 0.01 0.01 0.02 0.02 0.01 0.01 0.01 0.01 0.01 0.02 0.02 0.03 0.04 0.04 0.04 0.03 0.02 0.03 0.04 0.05
0.02 0.02 0.03 0.02 0.03 0.06 0.05 0.03 0.02 0.02 0.01 0.01 0.02 0.02 0.02 0.02 0.02 0.02 0.02 0.02 0.02 0.01 0.01 0.01 0.01 0.02 0.02 0.02 0.01 0.01 0.02 0.02 0.02 0.02 0.02 0.03 0.05 0.05 0.03 0.03 0.02 0.03 0.04 0.06
0.02 0.02 0.02 0.02 0.03 0.04 0.03 0.01 0.01 0.01 0.01 0.01 0.01 0.01 0.01 0.01 0.01 0.02 0.02 0.02 0.01 0.01 0.01 0.02 0.02 0.02 0.02 0.02 0.02 0.02 0.02 0.03 0.04 0.03 0.03 0.04 0.04 0.04 0.03 0.03 0.03 0.04 0.06 0.07
0.02 0.01 0.01 0.01 0.01 0.01 0.01 0.00 0.00 0.00 0.00 0.01 0.02 0.01 0.01 0.01 0.01 0.01 0.02 0.01 0.01 0.01 0.02 0.02 0.02 0.02 0.02 0.02 0.02 0.03 0.03 0.03 0.04 0.04 0.04 0.04 0.03 0.02 0.03 0.04 0.04 0.04 0.05 0.04
0.02 0.01 0.01 0.01 0.01 0.00 0.00 0.00 0.00 0.00 0.00 0.00 0.01 0.02 0.02 0.02 0.01 0.01 0.01 0.01 0.01 0.01 0.01 0.02 0.02 0.02 0.02 0.02 0.02 0.03 0.03 0.03 0.03 0.04 0.05 0.03 0.03 0.03 0.03 0.03 0.02 0.03 0.02 0.01
0.01 0.00 0.01 0.00 0.00 0.00 0.00 0.00 0.00 0.00 0.00 0.00 0.01 0.02 0.02 0.02 0.02 0.02 0.01 0.01 0.01 0.01 0.01 0.02 0.03 0.03 0.03 0.02 0.02 0.03 0.03 0.03 0.03 0.04 0.04 0.03 0.02 0.01 0.01 0.01 0.01 0.01 0.01 0.01
0.00 0.00 0.00 0.00 0.00 0.00 0.00 0.00 0.00 0.00 0.00 0.01 0.01 0.02 0.01 0.02 0.02 0.01 0.01 0.01 0.01 0.01 0.01 0.02 0.02 0.03 0.02 0.02 0.02 0.03 0.03 0.03 0.03 0.03 0.03 0.03 0.01 0.01 0.01 0.01 0.00 0.00 0.01 0.01
0.00 0.00 0.00 0.00 0.00 0.00 0.00 0.00 0.00 0.00 0.00 0.01 0.01 0.01 0.01 0.01 0.01 0.01 0.02 0.02 0.01 0.01 0.01 0.02 0.01 0.02 0.02 0.02 0.02 0.02 0.02 0.02 0.03 0.03 0.03 0.02 0.01 0.01 0.01 0.01 0.01 0.00 0.00 0.00
0.00 0.00 0.00 0.00 0.00 0.00 0.00 0.00 0.00 0.01 0.01 0.01 0.01 0.01 0.01 0.01 0.01 0.01 0.02 0.03 0.03 0.03 0.02 0.01 0.01 0.02 0.01 0.01 0.02 0.02 0.02 0.02 0.02 0.02 0.02 0.02 0.01 0.00 0.00 0.00 0.00 0.00 0.00 0.00
0.00 0.00 0.00 0.00 0.00 0.00 0.00 0.00 0.00 0.01 0.01 0.02 0.01 0.01 0.01 0.01 0.01 0.01 0.02 0.03 0.04 0.05 0.04 0.02 0.02 0.01 0.01 0.01 0.02 0.02 0.02 0.02 0.01 0.01 0.01 0.01 0.01 0.00 0.00 0.00 0.00 0.00 0.00 0.00
0.00 0.00 0.00 0.00 0.00 0.00 0.00 0.00 0.00 0.00 0.01 0.02 0.02 0.01 0.02 0.02 0.02 0.02 0.02 0.02 0.03 0.03 0.04 0.03 0.02 0.01 0.01 0.01 0.01 0.02 0.01 0.01 0.01 0.01 0.01 0.01 0.00 0.00 0.00 0.00 0.00 0.00 0.00 0.00
0.00 0.00 0.00 0.00 0.00 0.00 0.01 0.00 0.00 0.00 0.00 0.00 0.01 0.02 0.02 0.02 0.02 0.03 0.02 0.02 0.02 0.02 0.02 0.02 0.01 0.01 0.01 0.01 0.01 0.01 0.01 0.01 0.00 0.00 0.00 0.00 0.01 0.01 0.00 0.00 0.00 0.00 0.00 0.00
0.00 0.00 0.00 0.00 0.00 0.00 0.00 0.00 0.00 0.00 0.00 0.00 0.00 0.01 0.01 0.01 0.01 0.01 0.02 0.02 0.02 0.02 0.01 0.01 0.01 0.01 0.01 0.01 0.01 0.00 0.00 0.00 0.00 0.00 0.00 0.00 0.00 0.00 0.00 0.00 0.00 0.00 0.00 0.00
0.00 0.00 0.00 0.00 0.00 0.00 0.00 0.00 0.00 0.00 0.00 0.00 0.00 0.00 0.01 0.01 0.01 0.01 0.01 0.02 0.01 0.01 0.01 0.00 0.00 0.01 0.01 0.01 0.00 0.00 0.00 0.00 0.00 0.00 0.00 0.00 0.00 0.00 0.00 0.00 0.00 0.00 0.00 0.00
0.00 0.00 0.00 0.00 0.00 0.00 0.00 0.00 0.00 0.00 0.00 0.00 0.00 0.00 0.00 0.00 0.00 0.01 0.01 0.02 0.01 0.01 0.00 0.00 0.00 0.00 0.00 0.00 0.00 0.00 0.00 0.00 0.00 0.00 0.00 0.00 0.00 0.00 0.00 0.00 0.00 0.00 0.00 0.00
0.00 0.00 0.00 0.00 0.00 0.00 0.00 0.00 0.00 0.00 0.00 0.00 0.00 0.00 0.00 0.01 0.01 0.00 0.01 0.01 0.00 0.00 0.00 0.00 0.00 0.00 0.00 0.00 0.00 0.00 0.00 0.00 0.00 0.00 0.00 0.00 0.00 0.00 0.00 0.00 0.00 0.00 0.00 0.00
0.00 0.00 0.00 0.00 0.00 0.00 0.00 0.00 0.00 0.00 0.00 0.00 0.00 0.00 0.01 0.01 0.00 0.00 0.00 0.00 0.00 0.00 0.00 0.00 0.00 0.00 0.00 0.00 0.00 0.00 0.00 0.00 0.00 0.00 0.00 0.00 0.00 0.00 0.00 0.00 0.00 0.00 0.00 0.00
0.00 0.00 0.00 0.00 0.00 0.00 0.00 0.00 0.00 0.00 0.00 0.00 0.00 0.00 0.00 0.00 0.00 0.00 0.00 0.00 0.00 0.00 0.00 0.00 0.00 0.00 0.00 0.00 0.00 0.00 0.00 0.00 0.00 0.00 0.00 0.00 0.00 0.00 0.00 0.00 0.00 0.00 0.00 0.00
0.00 0.00 0.00 0.00 0.00 0.00 0.00 0.00 0.00 0.00 0.00 0.00 0.00 0.00 0.00 0.00 0.00 0.00 0.00 0.00 0.00 0.00 0.00 0.00 0.00 0.00 0.00 0.00 0.00 0.00 0.00 0.00 0.00 0.00 0.00 0.00 0.00 0.00 0.00 0.00 0.00 0.00 0.00 0.00
0.00 0.00 0.00 0.00 0.00 0.00 0.00 0.00 0.00 0.00 0.00 0.00 0.00 0.00 0.00 0.00 0.00 0.00 0.00 0.00 0.00 0.00 0.00 0.00 0.00 0.00 0.00 0.00 0.00 0.00 0.00 0.00 0.00 0.00 0.00 0.00 0.00 0.00 0.00 0.00 0.00 0.00 0.00 0.00
0.00 0.00 0.00 0.00 0.00 0.00 0.00 0.00 0.00 0.00 0.00 0.00 0.00 0.00 0.00 0.00 0.00 0.00 0.00 0.00 0.00 0.00 0.00 0.00 0.00 0.00 0.00 0.00 0.00 0.00 0.00 0.00 0.00 0.00 0.00 0.00 0.00 0.00 0.00 0.00 0.00 0.00 0.00 0.00
MSLP
1012.91 1012.98 1013.10 1013.26 1013.42 1013.55 1013.60 1013.54 1013.38 1013.12 1012.80 1012.47 1012.21 1012.07 1012.10 1012.33 1012.76 1013.37 1014.12 1014.94 1015.78 1016.58 1017.31 1017.93 1018.44 1018.85 1019.17 1019.43 1019.64 1019.82 1019.96 1020.07 1020.13 1020.16 1020.14 1020.07 1019.99 1019.89 1019.80 1019.74 1019.72 1019.74 1019.81 1019.90
1013.25 1013.37 1013.55 1013.76 1013.98 1014.16 1014.26 1014.27 1014.16 1013.97 1013.70 1013.42 1013.19 1013.05 1013.06 1013.24 1013.60 1014.12 1014.77 1015.49 1016.24 1016.95 1017.60 1018.15 1018.60 1018.95 1019.21 1019.41 1019.56 1019.68 1019.78 1019.86 1019.91 1019.95 1019.96 1019.96 1019.95 1019.93 1019.93 1019.95 1019.99 1020.06 1020.15 1020.24
1013.61 1013.79 1014.03 1014.31 1014.59 1014.84 1015.02 1015.10 1015.08 1014.95 1014.76 1014.53 1014.33 1014.20 1014.18 1014.31 1014.59 1015.01 1015.54 1016.15 1016.77 1017.38 1017.93 1018.39 1018.76 1019.03 1019.23 1019.36 1019.46 1019.53 1019.58 1019.64 1019.70 1019.77 1019.84 1019.91 1019.99 1020.08 1020.17 1020.27 1020.37 1020.48 1020.58 1020.66
1013.95 1014.20 1014.50 1014.83 1015.18 1015.49 1015.75 1015.91 1015.98 1015.95 1015.84 1015.68 1015.52 1015.40 1015.37 1015.45 1015.65 1015.97 1016.39 1016.87 1017.38 1017.87 1018.30 1018.67 1018.95 1019.15 1019.27 1019.35 1019.39 1019.42 1019.45 1019.51 1019.59 1019.70 1019.83 1019.99 1020.17 1020.35 1020.53 1020.71 1020.86 1020.98 1021.08 1021.13
1014.24 1014.53 1014.87 1015.26 1015.65 1016.02 1016.34 1016.59 1016.74 1016.81 1016.79 1016.71 1016.62 1016.54 1016.51 1016.56 1016.70 1016.94 1017.25 1017.61 1018.00 1018.37 1018.70 1018.97 1019.17 1019.30 1019.37 1019.40 1019.40 1019.41 1019.44 1019.51 1019.62 1019.78 1019.98 1020.22 1020.48 1020.75 1021.00 1021.23 1021.41 1021.54 1021.62 1021.63
1014.45 1014.77 1015.13 1015.53 1015.94 1016.35 1016.72 1017.04 1017.27 1017.43 1017.51 1017.53 1017.51 1017.49 1017.49 1017.53 1017.64 1017.81 1018.03 1018.30 1018.58 1018.85 1019.09 1019.29 1019.42 1019.50 1019.53 1019.53 1019.52 1019.53 1019.57 1019.66 1019.81 1020.02 1020.29 1020.59 1020.91 1021.24 1021.54 1021.80 1021.99 1022.12 1022.17 1022.15
1014.58 1014.90 1015.25 1015.64 1016.05 1016.47 1016.87 1017.23 1017.54 1017.78 1017.95 1018.07 1018.14 1018.18 1018.23 1018.29 1018.38 1018.51 1018.68 1018.87 1019.07 1019.26 1019.43 1019.57 1019.66 1019.71 1019.73 1019.73 1019.74 1019.77 1019.84 1019.96 1020.15 1020.40 1020.71 1021.05 1021.42 1021.77 1022.10 1022.37 1022.57 1022.69 1022.72 1022.68
1014.66 1014.94 1015.27 1015.63 1016.01 1016.42 1016.82 1017.21 1017.56 1017.87 1018.13 1018.33 1018.48 1018.60 1018.70 1018.80 1018.89 1019.01 1019.13 1019.28 1019.42 1019.56 1019.69 1019.80 1019.87 1019.92 1019.96 1019.99 1020.03 1020.10 1020.21 1020.37 1020.60 1020.88 1021.21 1021.58 1021.95 1022.32 1022.64 1022.91 1023.11 1023.22 1023.26 1023.22
1014.70 1014.95 1015.23 1015.55 1015.89 1016.26 1016.65 1017.04 1017.42 1017.78 1018.10 1018.38 1018.61 1018.80 1018.95 1019.08 1019.20 1019.30 1019.41 1019.53 1019.64 1019.76 1019.87 1019.96 1020.05 1020.13 1020.20 1020.28 1020.37 1020.49 1020.65 1020.85 1021.11 1021.41 1021.75 1022.11 1022.48 1022.83 1023.15 1023.41 1023.60 1023.72 1023.77 1023.75
1014.75 1014.97 1015.20 1015.47 1015.77 1016.10 1016.46 1016.85 1017.24 1017.62 1017.99 1018.32 1018.60 1018.85 1019.05 1019.21 1019.34 1019.45 1019.56 1019.66 1019.76 1019.87 1019.98 1020.09 1020.21 1020.33 1020.45 1020.59 1020.74 1020.92 1021.13 1021.37 1021.65 1021.96 1022.30 1022.65 1022.99 1023.33 1023.62 1023.87 1024.06 1024.19 1024.26 1024.27
1014.82 1015.01 1015.22 1015.45 1015.71 1016.01 1016.34 1016.71 1017.10 1017.50 1017.89 1018.25 1018.57 1018.85 1019.08 1019.26 1019.41 1019.53 1019.63 1019.73 1019.83 1019.94 1020.06 1020.21 1020.36 1020.54 1020.72 1020.93 1021.15 1021.38 1021.64 1021.91 1022.21 1022.52 1022.84 1023.17 1023.49 1023.79 1024.06 1024.30 1024.48 1024.62 1024.71 1024.76
1014.90 1015.09 1015.29 1015.51 1015.75 1016.04 1016.36 1016.71 1017.10 1017.49 1017.89 1018.26 1018.60 1018.89 1019.13 1019.33 1019.48 1019.60 1019.70 1019.80 1019.91 1020.03 1020.18 1020.36 1020.56 1020.79 1021.03 1021.30 1021.58 1021.86 1022.16 1022.46 1022.77 1023.08 1023.38 1023.68 1023.97 1024.24 1024.49 1024.70 1024.88 1025.02 1025.11 1025.18
1014.96 1015.18 1015.40 1015.63 1015.89 1016.18 1016.50 1016.86 1017.24 1017.63 1018.02 1018.39 1018.73 1019.02 1019.26 1019.45 1019.60 1019.72 1019.83 1019.93 1020.04 1020.18 1020.36 1020.57 1020.81 1021.09 1021.39 1021.71 1022.03 1022.36 1022.69 1023.01 1023.32 1023.62 1023.91 1024.18 1024.44 1024.68 1024.89 1025.08 1025.24 1025.36 1025.45 1025.50
1014.96 1015.23 1015.50 1015.79 1016.08 1016.40 1016.74 1017.11 1017.49 1017.88 1018.26 1018.62 1018.95 1019.23 1019.46 1019.65 1019.79 1019.91 1020.02 1020.12 1020.25 1020.41 1020.60 1020.84 1021.12 1021.44 1021.78 1022.14 1022.50 1022.86 1023.20 1023.53 1023.84 1024.13 1024.40 1024.65 1024.87 1025.07 1025.25 1025.41 1025.54 1025.63 1025.69 1025.71
1014.88 1015.22 1015.57 1015.92 1016.27 1016.64 1017.02 1017.40 1017.79 1018.18 1018.55 1018.90 1019.21 1019.48 1019.70 1019.88 1020.02 1020.14 1020.25 1020.37 1020.51 1020.68 1020.90 1021.16 1021.47 1021.81 1022.18 1022.56 1022.94 1023.31 1023.66 1023.99 1024.29 1024.57 1024.81 1025.02 1025.22 1025.39 1025.53 1025.65 1025.74 1025.80 1025.81 1025.79
1014.71 1015.14 1015.57 1015.99 1016.42 1016.83 1017.25 1017.66 1018.06 1018.45 1018.82 1019.15 1019.45 1019.70 1019.92 1020.10 1020.24 1020.37 1020.49 1020.62 1020.78 1020.97 1021.21 1021.49 1021.80 1022.16 1022.53 1022.92 1023.30 1023.67 1024.02 1024.33 1024.62 1024.86 1025.08 1025.27 1025.43 1025.56 1025.67 1025.75 1025.80 1025.82 1025.79 1025.72
1014.49 1014.99 1015.49 1015.99 1016.48 1016.94 1017.40 1017.83 1018.24 1018.62 1018.98 1019.31 1019.60 1019.85 1020.06 1020.24 1020.40 1020.54 1020.68 1020.83 1021.01 1021.22 1021.47 1021.76 1022.08 1022.43 1022.80 1023.18 1023.55 1023.90 1024.22 1024.51 1024.77 1024.98 1025.17 1025.32 1025.45 1025.55 1025.63 1025.67 1025.69 1025.67 1025.61 1025.50
1014.26 1014.82 1015.38 1015.92 1016.45 1016.95 1017.42 1017.86 1018.27 1018.65 1019.00 1019.32 1019.60 1019.85 1020.08 1020.27 1020.44 1020.61 1020.77 1020.95 1021.15 1021.38 1021.64 1021.93 1022.25 1022.60 1022.95 1023.30 1023.64 1023.96 1024.24 1024.49 1024.71 1024.89 1025.04 1025.16 1025.25 1025.32 1025.36 1025.38 1025.37 1025.34 1025.26 1025.14
1014.07 1014.66 1015.25 1015.81 1016.35 1016.86 1017.33 1017.76 1018.16 1018.52 1018.86 1019.17 1019.46 1019.71 1019.95 1020.16 1020.36 1020.56 1020.76 1020.96 1021.18 1021.43 1021.70 1021.99 1022.30 1022.62 1022.94 1023.26 1023.56 1023.83 1024.07 1024.28 1024.45 1024.58 1024.69 1024.77 1024.83 1024.86 1024.88 1024.89 1024.87 1024.82 1024.75 1024.64
1013.96 1014.55 1015.13 1015.68 1016.20 1016.68 1017.12 1017.53 1017.90 1018.25 1018.58 1018.88 1019.17 1019.44 1019.69 1019.93 1020.17 1020.39 1020.62 1020.86 1021.10 1021.36 1021.63 1021.92 1022.21 1022.51 1022.80 1023.07 1023.33 1023.55 1023.74 1023.89 1024.01 1024.10 1024.16 1024.20 1024.22 1024.23 1024.23 1024.22 1024.20 1024.16 1024.11 1024.03
1013.93 1014.48 1015.02 1015.53 1016.00 1016.43 1016.83 1017.20 1017.54 1017.87 1018.18 1018.48 1018.77 1019.06 1019.33 1019.61 1019.87 1020.13 1020.39 1020.65 1020.92 1021.18 1021.46 1021.73 1022.01 1022.28 1022.53 1022.77 1022.97 1023.15 1023.29 1023.39 1023.46 1023.51 1023.52 1023.52 1023.51 1023.50 1023.48 1023.46 1023.44 1023.42 1023.39 1023.35
1013.93 1014.43 1014.90 1015.34 1015.75 1016.12 1016.46 1016.78 1017.09 1017.39 1017.69 1018.00 1018.30 1018.60 1018.91 1019.21 1019.51 1019.80 1020.08 1020.36 1020.64 1020.91 1021.18 1021.45 1021.70 1021.95 1022.17 1022.37 1022.54 1022.67 1022.77 1022.83 1022.86 1022.87 1022.85 1022.81 1022.78 1022.74 1022.70 1022.68 1022.66 1022.65 1022.64 1022.63
1013.90 1014.33 1014.72 1015.09 1015.42 1015.73 1016.01 1016.29 1016.57 1016.86 1017.16 1017.46 1017.78 1018.11 1018.44 1018.76 1019.08 1019.40 1019.70 1019.99 1020.28 1020.55 1020.81 1021.07 1021.31 1021.53 1021.73 1021.90 1022.04 1022.15 1022.22 1022.25 1022.25 1022.23 1022.19 1022.13 1022.07 1022.02 1021.97 1021.94 1021.92 1021.91 1021.92 1021.92
1013.79 1014.14 1014.46 1014.74 1015.01 1015.25 1015.50 1015.74 1016.00 1016.28 1016.58 1016.90 1017.24 1017.58 1017.93 1018.28 1018.61 1018.94 1019.25 1019.54 1019.82 1020.09 1020.35 1020.59 1020.81 1021.02 1021.21 1021.37 1021.49 1021.59 1021.64 1021.66 1021.66 1021.62 1021.57 1021.50 1021.43 1021.37 1021.32 1021.28 1021.26 1021.25 1021.26 1021.27
1013.56 1013.84 1014.08 1014.30 1014.50 1014.71 1014.92 1015.15 1015.40 1015.68 1015.99 1016.32 1016.67 1017.03 1017.39 1017.75 1018.09 1018.41 1018.71 1019.00 1019.27 1019.52 1019.76 1019.99 1020.21 1020.41 1020.59 1020.74 1020.87 1020.97 1021.03 1021.06 1021.05 1021.03 1020.98 1020.92 1020.86 1020.80 1020.75 1020.71 1020.69 1020.68 1020.68 1020.68
1013.21 1013.42 1013.61 1013.77 1013.94 1014.12 1014.31 1014.53 1014.79 1015.08 1015.40 1015.74 1016.10 1016.46 1016.82 1017.17 1017.50 1017.80 1018.09 1018.35 1018.60 1018.83 1019.06 1019.27 1019.48 1019.67 1019.85 1020.01 1020.15 1020.26 1020.34 1020.39 1020.41 1020.40 1020.37 1020.33 1020.29 1020.25 1020.21 1020.19 1020.17 1020.16 1020.16 1020.15
1012.79 1012.95 1013.09 1013.23 1013.37 1013.53 1013.72 1013.95 1014.21 1014.51 1014.84 1015.18 1015.53 1015.89 1016.23 1016.55 1016.85 1017.12 1017.37 1017.60 1017.82 1018.02 1018.22 1018.42 1018.62 1018.81 1018.99 1019.16 1019.32 1019.45 1019.55 1019.62 1019.67 1019.69 1019.70 1019.69 1019.67 1019.66 1019.65 1019.65 1019.65 1019.65 1019.66 1019.65
Thickness
5676 5680 5680 5679 5680 5683 5682 5682 5679 5680 5681 5676 5671 5667 5660 5651 5642 5634 5627 5621 5615 5609 5604 5600 5596 5593 5591 5589 5587 5585 5584 5583 5582 5581 5580 5579 5579 5578 5578 5579 5580 5580 5581 5583
5665 5672 5673 5670 5673 5675 5675 5677 5676 5675 5669 5668 5664 5660 5651 5643 5635 5627 5621 5614 5607 5600 5596 5591 5588 5584 5582 5579 5578 5577 5576 5575 5573 5572 5571 5570 5569 5569 5569 5570 5571 5572 5573 5574
5657 5665 5665 5657 5664 5667 5668 5670 5670 5665 5661 5658 5652 5648 5643 5636 5629 5622 5614 5607 5599 5593 5588 5583 5579 5575 5572 5570 5569 5568 5567 5566 5564 5563 5562 5561 5562 5561 5561 5561 5562 5563 5564 5564
5658 5654 5642 5654 5667 5665 5662 5660 5661 5658 5654 5651 5646 5640 5636 5630 5623 5615 5607 5599 5592 5585 5579 5573 5569 5566 5563 5562 5560 5559 5558 5556 5555 5553 5553 5552 5552 5552 5552 5553 5553 5553 5554 5554
5654 5649 5648 5654 5660 5660 5656 5652 5653 5650 5645 5641 5637 5632 5623 5618 5614 5607 5599 5591 5583 5576 5570 5565 5561 5558 5556 5554 5552 5551 5549 5548 5546 5545 5545 5544 5544 5544 5544 5544 5545 5545 5545 5546
5651 5644 5639 5646 5656 5660 5655 5643 5647 5645 5640 5636 5632 5628 5617 5609 5603 5596 5588 5581 5574 5568 5563 5558 5554 5551 5549 5547 5545 5543 5541 5540 5539 5538 5537 5537 5537 5537 5537 5537 5538 5538 5537 5538
5649 5645 5645 5649 5654 5654 5641 5637 5642 5640 5636 5632 5626 5620 5610 5602 5594 5587 5579 5572 5567 5561 5556 5552 5548 5546 5543 5540 5538 5536 5534 5534 5532 5531 5531 5530 5529 5529 5530 5531 5531 5531 5531 5532
5650 5644 5639 5647 5651 5643 5637 5640 5638 5634 5630 5623 5615 5607 5600 5593 5586 5579 5572 5566 5561 5555 5550 5546 5543 5540 5537 5533 5531 5530 5529 5528 5527 5526 5526 5525 5524 5524 5525 5526 5527 5527 5527 5528
5648 5643 5642 5644 5642 5641 5640 5635 5632 5628 5623 5616 5607 5600 5592 5585 5579 5573 5566 5560 5555 5550 5545 5540 5537 5534 5531 5527 5526 5525 5524 5523 5521 5521 5521 5521 5521 5521 5522 5523 5526 5526 5527 5527
5645 5643 5643 5642 5641 5639 5636 5631 5627 5623 5617 5611 5602 5594 5587 5580 5573 5566 5560 5555 5550 5546 5540 5535 5532 5530 5527 5523 5521 5521 5520 5519 5518 5517 5518 5517 5518 5521 5522 5522 5523 5524 5525 5525
5645 5643 5641 5639 5637 5634 5630 5626 5621 5616 5611 5605 5597 5588 5582 5575 5568 5562 5556 5551 5546 5542 5537 5532 5529 5525 5523 5521 5519 5518 5517 5516 5516 5516 5515 5515 5515 5514 5517 5516 5517 5520 5523 5524
5647 5646 5642 5635 5634 5631 5625 5620 5616 5610 5604 5599 5592 5585 5578 5571 5565 5559 5553 5548 5543 5539 5535 5531 5527 5524 5522 5519 5518 5517 5515 5515 5515 5515 5515 5516 5516 5514 5509 5511 5511 5513 5514 5517
5650 5649 5644 5637 5633 5628 5622 5617 5613 5607 5601 5594 5588 5581 5575 5568 5562 5556 5551 5547 5542 5538 5535 5531 5527 5524 5522 5519 5518 5516 5516 5515 5516 5517 5517 5518 5519 5519 5517 5513 5511 5512 5513 5515
5648 5644 5638 5634 5629 5625 5620 5615 5610 5604 5598 5592 5585 5578 5572 5566 5561 5556 5551 5547 5542 5539 5535 5531 5528 5525 5523 5521 5519 5518 5518 5516 5517 5518 5519 5520 5521 5522 5523 5524 5523 5521 5517 5516
5647 5645 5640 5634 5628 5622 5618 5612 5606 5600 5594 5588 5583 5577 5572 5567 5562 5557 5553 5549 5544 5540 5537 5533 5530 5527 5525 5523 5522 5521 5521 5521 5520 5521 5522 5522 5523 5526 5527 5528 5528 5528 5527 5523
5646 5642 5637 5631 5625 5620 5616 5611 5606 5599 5594 5588 5583 5577 5573 5568 5563 5559 5555 5551 5546 5543 5540 5537 5533 5531 5528 5526 5524 5523 5523 5519 5520 5523 5525 5526 5528 5530 5531 5532 5533 5532 5533 5534
5644 5638 5635 5630 5626 5622 5618 5613 5608 5602 5596 5590 5584 5579 5574 5569 5565 5561 5557 5554 5550 5547 5544 5540 5538 5535 5533 5531 5529 5529 5529 5525 5521 5527 5530 5532 5533 5534 5535 5536 5538 5538 5540 5539
5648 5644 5640 5635 5630 5624 5619 5614 5609 5604 5598 5593 5587 5582 5576 5572 5568 5564 5560 5557 5553 5550 5547 5545 5542 5540 5538 5536 5534 5535 5534 5534 5534 5535 5536 5536 5537 5538 5540 5541 5543 5543 5545 5544
5648 5643 5639 5634 5631 5626 5621 5616 5611 5606 5600 5595 5590 5584 5580 5576 5572 5568 5564 5560 5557 5554 5552 5549 5544 5543 5542 5540 5538 5539 5540 5541 5541 5541 5541 5538 5540 5544 5546 5548 5549 5551 5552 5553
5647 5643 5639 5634 5631 5627 5622 5617 5613 5607 5602 5598 5593 5587 5583 5579 5576 5572 5568 5566 5564 5563 5558 5554 5550 5549 5547 5546 5542 5547 5548 5548 5548 5548 5549 5549 5550 5551 5553 5555 5556 5557 5558 5559
5646 5642 5639 5635 5630 5627 5624 5619 5614 5609 5605 5601 5596 5592 5587 5584 5580 5577 5574 5572 5569 5566 5563 5557 5556 5556 5554 5553 5548 5554 5555 5555 5555 5555 5556 5556 5557 5559 5560 5561 5562 5563 5564 5565
5646 5643 5639 5636 5631 5627 5625 5621 5617 5613 5608 5604 5600 5597 5592 5588 5585 5582 5580 5579 5576 5570 5568 5567 5565 5562 5561 5557 5560 5561 5562 5562 5561 5562 5562 5563 5564 5564 5566 5567 5568 5569 5571 5572
5646 5643 5639 5636 5632 5629 5626 5623 5619 5615 5611 5607 5604 5601 5597 5595 5593 5590 5587 5585 5582 5575 5575 5576 5572 5565 5562 5562 5567 5568 5569 5568 5568 5569 5569 5570 5571 5571 5572 5573 5575 5576 5577 5579
5645 5642 5639 5637 5634 5630 5626 5625 5622 5619 5616 5613 5610 5607 5603 5600 5598 5598 5596 5590 5586 5580 5581 5580 5573 5569 5564 5570 5573 5575 5576 5575 5576 5576 5577 5578 5579 5579 5580 5581 5582 5583 5584 5585
5644 5642 5639 5636 5633 5632 5629 5627 5624 5621 5619 5618 5615 5612 5610 5608 5606 5605 5602 5598 5591 5585 5587 5584 5577 5573 5573 5579 5581 5583 5583 5584 5584 5584 5584 5584 5585 5586 5587 5588 5589 5589 5590 5592
5643 5641 5639 5636 5635 5634 5634 5631 5629 5626 5624 5622 5620 5618 5616 5613 5611 5609 5605 5603 5600 5593 5593 5593 5589 5581 5584 5587 5589 5589 5589 5589 5589 5587 5588 5589 5590 5591 5592 5593 5594 5595 5596 5597
5642 5640 5638 5637 5636 5636 5636 5634 5632 5630 5629 5626 5624 5622 5620 5618 5615 5613 5611 5610 5608 5603 5602 5601 5600 5597 5596 5596 5596 5596 5595 5595 5595 5595 5596 5596 5596 5597 5598 5598 5599 5600 5601 5602